[[{"header":{"parameterUnit":"m.s-1","parameterCategory":1,"la1":30.2991,"la2":30.254,"lo1":-89.0895,"lo2":-89.0444,"dy":0.0017,"dx":0.0017,"nx":28,"ny":28,"refTime":"2024-06-24T09:00:00:Z","depth":0,"parameterNumber":2,"parameterNumberName":"U-component_of_WINDS"},"data":[0,0,0,0,0,0,0,0,0,0,0,0,0,0,0,0,0,0,0,0,0,0,0,0,0,0,0,0,0,0,0,0,0,0,0,0,0,0,0,0,0,0,0,0,0,0,0,0,0,0,0,0,0,0,0,0,0,0,3.5055,3.5056,0,3.5164,3.5166,3.5167,3.515,3.5149,3.5147,3.5145,3.5256,3.5261,3.5265,0,0,0,0,0,0,0,0,0,0,0,0,0,3.4828,3.4832,3.5054,3.5056,3.5057,3.5164,3.5166,3.5167,3.5151,3.5149,3.5146,3.5144,3.5255,3.526,3.5266,0,0,0,0,0,0,0,0,0,0,0,0,0,3.4931,3.4834,3.5054,3.5062,3.5064,3.5164,3.5166,3.5168,3.5151,3.5148,3.5146,3.5143,3.5253,3.526,3.5267,3.5366,0,0,3.5288,3.5291,0,0,0,0,0,0,0,0,3.4925,3.4939,3.5059,3.5062,3.5064,3.5141,3.5127,3.5234,3.5152,3.5118,3.5145,3.5142,3.522,3.523,3.5256,3.5371,3.5375,3.5289,3.5293,3.5296,3.5298,0,0,0,0,0,0,0,3.4918,3.4934,3.5098,3.5061,3.5064,3.5059,3.5071,3.5147,3.5183,3.5121,3.512,3.5133,3.5221,3.5249,3.5259,3.5377,3.5288,3.5295,3.5299,3.5302,3.5576,3.5579,0,0,0,0,0,0,3.4909,3.4929,3.5094,3.5101,3.4986,3.5065,3.5078,3.5119,3.5182,3.5189,3.5135,3.5132,3.5239,3.525,3.5262,3.5381,3.5296,3.5302,3.5306,3.5573,3.5577,3.558,0,0,0,0,0,0,3.4904,3.4924,3.509,3.5015,3.5035,3.5072,3.5118,3.5123,3.5151,3.5193,3.52,3.5158,3.5237,3.5253,3.534,3.5384,3.5306,3.5312,3.5569,3.5574,3.5578,3.5619,0,0,0,0,0,0,3.4898,3.4922,3.4961,3.5016,3.504,3.5166,3.5121,3.5127,3.5164,3.516,3.5217,3.5223,3.5236,3.5329,3.5347,3.5393,3.5317,3.5565,3.5571,3.5577,3.5614,3.5625,3.5634,0,0,0,0,0,3.489,3.4968,3.4963,3.4983,3.5089,3.5169,3.5182,3.5196,3.5168,3.5206,3.5233,3.5221,3.5377,3.5338,3.5358,3.5407,3.5563,3.557,3.5576,3.561,3.5623,3.5634,0,0,0,0,0,0,3.4918,3.4976,3.497,3.5069,3.5114,3.5166,3.5215,3.521,3.5263,3.5258,3.5272,3.5285,3.5372,3.5399,3.5354,3.5505,3.5466,3.5477,3.5484,3.5497,3.5507,3.5498,3.5323,0,0,0,0,0,3.4935,3.4996,3.5043,3.5126,3.5149,3.5178,3.5213,3.522,3.5267,3.5286,3.5319,3.5364,3.5423,3.5462,3.5519,3.5618,3.5629,3.5661,3.5671,3.5679,3.5688,3.574,3.5755,3.5603,3.5603,3.5603,0,0,3.4973,3.5012,3.5049,3.5132,3.5168,3.523,3.5194,3.5261,3.5307,3.5296,3.5379,3.5406,3.5457,3.555,3.5593,3.5575,3.5732,3.5688,3.5694,3.5699,3.5749,3.5763,3.5776,3.5607,3.5607,3.5606,0,0,3.5071,3.5108,3.518,3.5216,3.527,3.5289,3.5306,3.5359,3.5375,3.546,3.5452,3.5506,3.5608,3.5645,3.5676,3.5788,3.5778,3.5806,3.5857,3.5908,3.592,3.593,3.5968,3.5982,3.5815,3.5815,3.5815,0,3.511,3.5203,3.5217,3.5285,3.5321,3.5314,3.5386,3.542,3.549,3.5515,3.5493,3.562,3.5654,3.5755,3.5782,3.5809,3.5827,3.5799,3.5917,3.5928,3.5938,3.5974,3.5988,3.5818,3.5818,3.5817,3.5817,0,3.5247,3.5312,3.5363,3.5431,3.5473,3.5543,3.5566,3.5606,3.5609,3.563,3.5715,3.5756,3.582,3.5844,3.5848,3.5945,3.5932,3.5914,3.5875,3.5955,3.5989,3.6003,3.5822,3.5821,3.582,3.5819,0,0,3.5367,3.544,3.5459,3.5488,3.5548,3.5597,3.5666,3.5729,3.5762,3.5811,3.5867,3.5953,3.5936,3.5972,3.598,3.6025,3.6108,3.6001,3.6003,3.6018,3.6215,3.6227,3.6243,3.6103,3.6105,3.6108,3.621,0,3.5469,3.5591,3.5605,3.5713,3.5771,3.5765,3.5825,3.5867,3.5888,3.594,3.5963,3.6022,3.5997,3.6018,3.6063,3.6088,3.6147,3.6081,3.6154,3.6156,3.6139,3.6261,3.6274,3.6368,3.6223,3.6226,3.6227,0,3.5606,3.5658,3.5771,3.582,3.5846,3.5899,3.5956,3.6007,3.6054,3.6066,3.6106,3.6107,3.6176,3.6135,3.623,3.6185,3.6215,3.6232,3.6236,3.6242,3.6195,3.6268,3.6399,3.6413,3.6249,3.6247,3.6246,0,3.5679,3.5777,3.5857,3.5883,3.5943,3.598,3.6007,3.6051,3.6087,3.6138,3.6161,3.6219,3.625,3.6294,3.6311,3.628,3.6404,3.6365,3.6414,3.6414,3.6439,3.6437,3.6575,3.6462,3.6462,3.6462,3.6461,0,3.5791,3.586,3.589,3.594,3.6016,3.6031,3.6107,3.6131,3.6171,3.6223,3.6222,3.6272,3.6291,3.6343,3.6357,3.6432,3.6446,3.6457,3.6459,3.6456,3.6454,3.6475,3.6468,3.6465,3.6465,3.6464,3.6463,0,3.5885,3.5909,3.5995,3.6045,3.6059,3.6113,3.6155,3.6201,3.6222,3.6288,3.6305,3.6336,3.6398,3.6418,3.6493,3.6502,3.6588,3.6586,3.6573,3.6573,3.662,3.6614,3.6774,3.6795,3.667,3.6671,3.6672,0,3.5955,3.6008,3.6063,3.6098,3.6126,3.6183,3.622,3.6236,3.6275,3.6331,3.6371,3.6432,3.6481,3.6579,3.6608,3.6664,3.6662,3.6714,3.667,3.6665,3.666,3.6656,3.6661,3.6722,3.6723,3.6724,3.6725,0,3.6075,3.6083,3.6137,3.6194,3.6238,3.6283,3.6328,3.6357,3.6379,3.6422,3.6485,3.6523,3.6598,3.6658,3.6716,3.6742,3.6737,3.6739,3.6753,3.6749,3.6738,3.6743,3.6593,3.6735,3.6734,3.6733,3.6733,3.6732,3.6157,3.6203,3.6249,3.6308,3.6343,3.6384,3.6429,3.6455,3.6508,3.657,3.6577,3.6644,3.6688,3.6764,3.6793,3.6845,3.683,3.6851,3.6856,3.686,3.6863,3.6732,3.6856,3.6856,3.6855,3.6855,3.6855,0,3.6275,3.6304,3.6358,3.642,3.6466,3.6458,3.6506,3.6544,3.6603,3.6645,3.6694,3.6764,3.6822,3.6855,3.6913,3.6948,3.6946,3.6962,3.6958,3.6964,3.6874,3.6855,3.6962,3.6962,3.6962,3.6961,3.6961,3.6961,3.6342,3.6419,3.6432,3.6526,3.6554,3.662,3.6647,3.6685,3.6718,3.6797,3.6845,3.6866,3.6904,3.6964,3.7016,3.7024,3.7044,3.7061,3.7067,3.6982,3.6971,3.696,3.6942,3.7066,3.7066,3.7153,3.7153,3.7154]},{"header":{"parameterUnit":"m.s-1","parameterCategory":1,"la1":30.2991,"la2":30.254,"lo1":-89.0895,"lo2":-89.0444,"dy":0.0017,"dx":0.0017,"nx":28,"ny":28,"refTime":"2024-06-24T09:00:00:Z","depth":0,"parameterNumber":3,"parameterNumberName":"V-component_of_WINDS"},"data":[0,0,0,0,0,0,0,0,0,0,0,0,0,0,0,0,0,0,0,0,0,0,0,0,0,0,0,0,0,0,0,0,0,0,0,0,0,0,0,0,0,0,0,0,0,0,0,0,0,0,0,0,0,0,0,0,0,0,0.6598,0.6598,0,0.6589,0.6589,0.6589,0.6574,0.6574,0.6574,0.6573,0.6564,0.6563,0.6563,0,0,0,0,0,0,0,0,0,0,0,0,0,0.6602,0.6602,0.6598,0.6598,0.6598,0.6589,0.6589,0.6589,0.6574,0.6574,0.6573,0.6573,0.6564,0.6563,0.6563,0,0,0,0,0,0,0,0,0,0,0,0,0,0.6597,0.6602,0.6598,0.6589,0.6589,0.6589,0.6589,0.6589,0.6574,0.6574,0.6573,0.6573,0.6564,0.6563,0.6563,0.6571,0,0,0.6563,0.6563,0,0,0,0,0,0,0,0,0.6597,0.6597,0.6591,0.659,0.6589,0.6582,0.6587,0.6583,0.6574,0.658,0.6573,0.6573,0.657,0.6569,0.6569,0.6571,0.6571,0.6563,0.6563,0.6563,0.6563,0,0,0,0,0,0,0,0.6598,0.6597,0.6594,0.6591,0.659,0.6586,0.6585,0.6586,0.6577,0.6579,0.6578,0.6577,0.6569,0.6569,0.6568,0.657,0.6563,0.6563,0.6563,0.6563,0.6578,0.6578,0,0,0,0,0,0,0.66,0.6598,0.6595,0.6594,0.6592,0.6586,0.6585,0.6585,0.6577,0.6576,0.6578,0.6577,0.6569,0.6568,0.6568,0.6576,0.6563,0.6563,0.6563,0.6578,0.6578,0.6578,0,0,0,0,0,0,0.66,0.6599,0.6595,0.6596,0.6595,0.6586,0.6587,0.6585,0.6584,0.6576,0.6574,0.6578,0.6569,0.6568,0.657,0.6576,0.6563,0.6563,0.6577,0.6578,0.6578,0.6593,0,0,0,0,0,0,0.66,0.66,0.6603,0.6596,0.6595,0.6598,0.6587,0.6585,0.6584,0.6583,0.6576,0.6575,0.6568,0.6571,0.657,0.6576,0.6563,0.6577,0.6577,0.6578,0.6592,0.6594,0.6596,0,0,0,0,0,0.66,0.6607,0.6603,0.6603,0.6599,0.6599,0.6598,0.659,0.6585,0.6588,0.6582,0.6575,0.6575,0.6571,0.6571,0.6576,0.6576,0.6577,0.6578,0.6592,0.6594,0.6596,0,0,0,0,0,0,0.6615,0.6606,0.6601,0.6607,0.6604,0.6596,0.66,0.6593,0.6592,0.659,0.6581,0.6579,0.6583,0.658,0.6575,0.6583,0.6574,0.6575,0.6585,0.6587,0.6589,0.659,0.6563,0,0,0,0,0,0.6619,0.662,0.6612,0.6618,0.6616,0.6608,0.6608,0.6602,0.6599,0.6597,0.6592,0.6588,0.6587,0.6587,0.6586,0.6592,0.659,0.6595,0.6597,0.6598,0.6599,0.6602,0.6604,0.6581,0.6581,0.6581,0,0,0.6628,0.6623,0.6624,0.6621,0.6618,0.6618,0.6607,0.6609,0.6609,0.6597,0.6599,0.6595,0.6591,0.6595,0.6596,0.6592,0.6605,0.66,0.6601,0.6601,0.6603,0.6605,0.6607,0.6582,0.6582,0.6582,0,0,0.6643,0.664,0.6644,0.6641,0.6636,0.663,0.6631,0.6625,0.6622,0.6624,0.6614,0.6614,0.6613,0.661,0.6608,0.6622,0.6615,0.6622,0.6632,0.6634,0.6636,0.6637,0.6642,0.6643,0.6622,0.6623,0.6623,0,0.6654,0.6655,0.6647,0.6649,0.6647,0.6636,0.664,0.6637,0.6632,0.6632,0.6627,0.6625,0.6621,0.6624,0.6627,0.6626,0.6626,0.6622,0.6636,0.6638,0.6639,0.6643,0.6645,0.6623,0.6623,0.6623,0.6623,0,0.6669,0.6669,0.6673,0.6669,0.6668,0.6671,0.6662,0.6662,0.6656,0.6651,0.6653,0.6647,0.6645,0.6645,0.6639,0.6647,0.6644,0.6638,0.663,0.6642,0.6646,0.6647,0.6625,0.6624,0.6624,0.6624,0,0,0.6694,0.6684,0.6686,0.6683,0.6677,0.6677,0.6679,0.6677,0.6677,0.6673,0.6674,0.6673,0.6667,0.6665,0.6659,0.6661,0.6671,0.6654,0.6654,0.6657,0.6679,0.6684,0.6686,0.6667,0.6667,0.6667,0.6679,0,0.6708,0.6712,0.6704,0.6709,0.6709,0.6698,0.67,0.6696,0.6691,0.669,0.6684,0.6684,0.6676,0.6674,0.6676,0.667,0.6676,0.6669,0.6667,0.6667,0.6669,0.6688,0.6693,0.6705,0.6681,0.6681,0.6681,0,0.6726,0.6723,0.6728,0.6721,0.6721,0.6722,0.6719,0.6718,0.6713,0.6709,0.6707,0.6699,0.67,0.6692,0.6693,0.6688,0.6687,0.6684,0.6684,0.6684,0.6675,0.6688,0.6708,0.671,0.6683,0.6683,0.6683,0,0.6743,0.6741,0.6744,0.6742,0.6734,0.6735,0.6731,0.6726,0.6725,0.6721,0.672,0.6717,0.6716,0.6713,0.6705,0.67,0.6707,0.6698,0.6703,0.6703,0.6705,0.6705,0.6726,0.6704,0.6704,0.6704,0.6704,0,0.676,0.6763,0.6752,0.6753,0.6756,0.6747,0.675,0.6746,0.6741,0.6741,0.6731,0.6732,0.6721,0.672,0.6713,0.6714,0.6714,0.671,0.6709,0.6711,0.6712,0.671,0.6709,0.6705,0.6705,0.6705,0.6705,0,0.6781,0.6773,0.6775,0.6767,0.6765,0.6767,0.676,0.6761,0.6755,0.6755,0.6755,0.6745,0.6744,0.6735,0.6731,0.6727,0.673,0.6727,0.6732,0.6731,0.6737,0.6736,0.6757,0.6759,0.6737,0.6737,0.6737,0,0.6792,0.6794,0.6786,0.6785,0.6782,0.6782,0.678,0.6771,0.6769,0.6763,0.6765,0.6762,0.676,0.6757,0.675,0.6746,0.6743,0.675,0.6742,0.6745,0.6743,0.6742,0.6742,0.6752,0.6752,0.6753,0.6753,0,0.6812,0.6808,0.6807,0.6803,0.6802,0.6799,0.6795,0.6795,0.6785,0.6784,0.6782,0.678,0.6776,0.6773,0.6768,0.6764,0.6757,0.6755,0.6756,0.6759,0.6762,0.676,0.6737,0.6755,0.6755,0.6755,0.6754,0.6754,0.6828,0.683,0.6824,0.6822,0.6819,0.6815,0.6816,0.681,0.6808,0.6804,0.6798,0.6797,0.6791,0.6784,0.678,0.6779,0.6775,0.6776,0.6776,0.6777,0.6778,0.6762,0.6778,0.6778,0.6778,0.6778,0.6778,0,0.6848,0.6844,0.6842,0.6838,0.6836,0.6829,0.6825,0.6824,0.6823,0.6818,0.6815,0.6813,0.681,0.6802,0.6798,0.6798,0.6795,0.6798,0.6798,0.6797,0.6782,0.6782,0.6801,0.6801,0.6801,0.6801,0.6801,0.6801,0.6858,0.686,0.6855,0.6855,0.685,0.6849,0.6847,0.6844,0.684,0.6837,0.6835,0.683,0.6824,0.6819,0.6816,0.6814,0.6813,0.6817,0.6813,0.68,0.6798,0.6796,0.6795,0.6817,0.6817,0.6828,0.6828,0.6828]}]]